Hourly Weather Ruseni

Today, 21 April, Wednesday

Time Temperature Precipitation Wind Pressure Humidity
00:00 +7°C° 0 mm 2 mps 741 mmHg 74%
01:00 +7°C° 0 mm 2 mps 741 mmHg 76%
02:00 +6°C° 0 mm 2 mps 741 mmHg 79%
03:00 +6°C° 0 mm 2 mps 741 mmHg 81%
04:00 +6°C° 0 mm 2 mps 741 mmHg 82%
05:00 +6°C° 0 mm 2 mps 741 mmHg 84%
06:00 +7°C° 0 mm 2 mps 742 mmHg 79%
07:00 +8°C° 0 mm 3 mps 742 mmHg 75%
08:00 +9°C° 0 mm 3 mps 743 mmHg 70%
09:00 +11°C° 0.2 mm 3 mps 743 mmHg 64%
10:00 +12°C° 0.2 mm 4 mps 743 mmHg 59%
11:00 +13°C° 0.2 mm 4 mps 743 mmHg 53%
12:00 +14°C° 0 mm 4 mps 743 mmHg 49%
13:00 +16°C° 0 mm 3 mps 743 mmHg 44%
14:00 +16°C° 0 mm 3 mps 743 mmHg 40%
15:00 +16°C° 0 mm 2 mps 743 mmHg 42%
16:00 +16°C° 0 mm 2 mps 743 mmHg 44%
17:00 +16°C° 0 mm 1 mps 743 mmHg 46%
18:00 +15°C° 0 mm 2 mps 743 mmHg 50%
19:00 +13°C° 0 mm 2 mps 743 mmHg 53%
20:00 +12°C° 0 mm 2 mps 744 mmHg 57%
21:00 +10°C° 0 mm 2 mps 744 mmHg 60%
22:00 +10°C° 0 mm 2 mps 744 mmHg 63%
23:00 +9°C° 0 mm 2 mps 744 mmHg 66%

Tomorrow, 22 April, Thursday

Time Temperature Precipitation Wind Pressure Humidity
00:00 +9°C° 0 mm 2 mps 744 mmHg 68%
01:00 +8°C° 0 mm 2 mps 744 mmHg 69%
02:00 +8°C° 0 mm 2 mps 744 mmHg 70%
03:00 +8°C° 0 mm 2 mps 744 mmHg 71%
04:00 +7°C° 0 mm 2 mps 744 mmHg 72%
05:00 +8°C° 0 mm 1 mps 744 mmHg 73%
06:00 +9°C° 0 mm 1 mps 745 mmHg 69%
07:00 +10°C° 0 mm 2 mps 745 mmHg 65%
08:00 +12°C° 0 mm 2 mps 745 mmHg 61%
09:00 +14°C° 0 mm 2 mps 745 mmHg 56%
10:00 +14°C° 0 mm 3 mps 745 mmHg 51%
11:00 +17°C° 0 mm 3 mps 745 mmHg 46%
12:00 +17°C° 0 mm 3 mps 745 mmHg 44%
13:00 +18°C° 0 mm 4 mps 745 mmHg 42%
14:00 +18°C° 0 mm 4 mps 744 mmHg 40%
15:00 +18°C° 0 mm 4 mps 744 mmHg 42%
16:00 +18°C° 0 mm 4 mps 744 mmHg 43%
17:00 +18°C° 0 mm 4 mps 743 mmHg 44%
18:00 +16°C° 0.3 mm 3 mps 743 mmHg 54%
19:00 +14°C° 0.3 mm 2 mps 743 mmHg 64%
20:00 +13°C° 0.3 mm 1 mps 744 mmHg 74%
21:00 +12°C° 0.2 mm 2 mps 744 mmHg 75%
22:00 +12°C° 0.2 mm 2 mps 743 mmHg 77%
23:00 +10°C° 0.2 mm 2 mps 743 mmHg 79%

Day after tomorrow, 23 April, Friday

Time Temperature Precipitation Wind Pressure Humidity
00:00 +9°C° 0 mm 3 mps 744 mmHg 82%
01:00 +7°C° 0 mm 4 mps 744 mmHg 86%
02:00 +6°C° 0 mm 5 mps 744 mmHg 90%
03:00 +6°C° 0 mm 5 mps 745 mmHg 89%
04:00 +5°C° 0 mm 4 mps 745 mmHg 88%
05:00 +5°C° 0 mm 3 mps 745 mmHg 87%
06:00 +5°C° 0.1 mm 4 mps 745 mmHg 84%
07:00 +5°C° 0.1 mm 4 mps 745 mmHg 82%
08:00 +5°C° 0.1 mm 4 mps 745 mmHg 79%
09:00 +5°C° 0.9 mm 4 mps 746 mmHg 83%
10:00 +4°C° 0.9 mm 4 mps 746 mmHg 87%
11:00 +4°C° 0.9 mm 4 mps 746 mmHg 91%
12:00 +5°C° 0.8 mm 3 mps 746 mmHg 82%
13:00 +7°C° 0.8 mm 3 mps 746 mmHg 73%
14:00 +8°C° 0.8 mm 2 mps 746 mmHg 64%
15:00 +9°C° 0.1 mm 3 mps 746 mmHg 62%
16:00 +8°C° 0.1 mm 5 mps 746 mmHg 60%
17:00 +8°C° 0.1 mm 6 mps 745 mmHg 58%
18:00 +7°C° 0 mm 5 mps 746 mmHg 62%
19:00 +6°C° 0 mm 4 mps 746 mmHg 66%
20:00 +5°C° 0 mm 3 mps 746 mmHg 70%
21:00 +4°C° 0 mm 3 mps 746 mmHg 73%
22:00 +3°C° 0 mm 3 mps 746 mmHg 76%
23:00 +3°C° 0 mm 3 mps 746 mmHg 79%

24 April, Saturday

Time Temperature Precipitation Wind Pressure Humidity
00:00 +3°C° 0 mm 3 mps 746 mmHg 81%
01:00 +3°C° 0 mm 4 mps 747 mmHg 82%
02:00 +2°C° 0 mm 5 mps 747 mmHg 84%
03:00 +1°C° 0 mm 5 mps 747 mmHg 84%
04:00 +1°C° 0 mm 5 mps 747 mmHg 83%
05:00 +1°C° 0 mm 5 mps 747 mmHg 82%
06:00 +2°C° 0 mm 6 mps 747 mmHg 75%
07:00 +2°C° 0 mm 6 mps 748 mmHg 69%
08:00 +3°C° 0 mm 6 mps 748 mmHg 62%
09:00 +3°C° 0 mm 6 mps 748 mmHg 58%
10:00 +4°C° 0 mm 7 mps 748 mmHg 55%
11:00 +5°C° 0 mm 8 mps 748 mmHg 51%
12:00 +6°C° 0 mm 8 mps 748 mmHg 47%
13:00 +6°C° 0 mm 8 mps 748 mmHg 42%
14:00 +8°C° 0 mm 7 mps 748 mmHg 38%
15:00 +8°C° 0 mm 7 mps 748 mmHg 38%
16:00 +8°C° 0 mm 7 mps 748 mmHg 39%
17:00 +8°C° 0 mm 6 mps 748 mmHg 39%
18:00 +6°C° 0 mm 5 mps 748 mmHg 45%
19:00 +5°C° 0 mm 4 mps 748 mmHg 51%
20:00 +4°C° 0 mm 3 mps 749 mmHg 57%
21:00 +3°C° 0 mm 3 mps 749 mmHg 60%
22:00 +3°C° 0 mm 3 mps 749 mmHg 62%
23:00 +2°C° 0 mm 3 mps 749 mmHg 64%

25 April, Sunday

Time Temperature Precipitation Wind Pressure Humidity
00:00 +3°C° 0 mm 2 mps 749 mmHg 66%
01:00 +3°C° 0 mm 2 mps 748 mmHg 68%
02:00 +2°C° 0 mm 2 mps 748 mmHg 70%
03:00 +2°C° 0 mm 2 mps 748 mmHg 72%
04:00 +3°C° 0 mm 1 mps 748 mmHg 73%
05:00 +2°C° 0 mm 1 mps 748 mmHg 74%
06:00 +2°C° 0 mm 2 mps 748 mmHg 70%
07:00 +4°C° 0 mm 2 mps 748 mmHg 67%
08:00 +4°C° 0 mm 3 mps 748 mmHg 63%
09:00 +4°C° 0.1 mm 3 mps 748 mmHg 67%
10:00 +4°C° 0.1 mm 3 mps 748 mmHg 71%
11:00 +4°C° 0.1 mm 3 mps 749 mmHg 75%
12:00 +5°C° 0.2 mm 4 mps 748 mmHg 67%
13:00 +6°C° 0.2 mm 4 mps 748 mmHg 59%
14:00 +8°C° 0.2 mm 4 mps 748 mmHg 51%
15:00 +8°C° 0 mm 5 mps 747 mmHg 48%
16:00 +8°C° 0 mm 5 mps 747 mmHg 44%
17:00 +8°C° 0 mm 5 mps 747 mmHg 40%
18:00 +7°C° 0 mm 5 mps 747 mmHg 45%
19:00 +6°C° 0 mm 4 mps 748 mmHg 49%
20:00 +5°C° 0 mm 4 mps 748 mmHg 54%
21:00 +4°C° 0 mm 3 mps 748 mmHg 59%
22:00 +3°C° 0 mm 3 mps 748 mmHg 64%
23:00 +3°C° 0 mm 3 mps 748 mmHg 69%

26 April, Monday

Time Temperature Precipitation Wind Pressure Humidity
00:00 +2°C° 0 mm 3 mps 748 mmHg 73%
01:00 +2°C° 0 mm 3 mps 748 mmHg 77%
02:00 +1°C° 0 mm 3 mps 747 mmHg 80%
03:00 +1°C° 0 mm 3 mps 747 mmHg 80%
04:00 0°C° 0 mm 4 mps 747 mmHg 80%
05:00 -1°C° 0 mm 4 mps 747 mmHg 80%
06:00 0°C° 0 mm 5 mps 748 mmHg 74%
07:00 +2°C° 0 mm 5 mps 748 mmHg 68%
08:00 +3°C° 0 mm 6 mps 748 mmHg 62%
09:00 +4°C° 0 mm 6 mps 748 mmHg 55%
10:00 +5°C° 0 mm 7 mps 748 mmHg 49%
11:00 +6°C° 0 mm 7 mps 749 mmHg 42%
12:00 +8°C° 0 mm 7 mps 748 mmHg 40%
13:00 +8°C° 0 mm 7 mps 748 mmHg 38%
14:00 +9°C° 0 mm 7 mps 748 mmHg 36%
15:00 +9°C° 0 mm 6 mps 748 mmHg 37%
16:00 +9°C° 0 mm 6 mps 747 mmHg 38%
17:00 +9°C° 0 mm 5 mps 747 mmHg 39%
18:00 +8°C° 0 mm 4 mps 747 mmHg 44%
19:00 +7°C° 0 mm 3 mps 747 mmHg 50%
20:00 +7°C° 0 mm 1 mps 748 mmHg 55%
21:00 +7°C° 0 mm 1 mps 748 mmHg 56%
22:00 +6°C° 0 mm 1 mps 748 mmHg 57%
23:00 +5°C° 0 mm 0 mps 748 mmHg 58%
Show more